Location: Coors Field
(39.7564°N, 104.9943°W)
Time: 18:25:19
(UTC-07:00)

ISS - Visible Passes

Search period start: 25 November 2014 00:00
Search period end: 05 December 2014 00:00
Orbit: 407 x 417 km, 51.6° (Epoch: 25 November)

Date Brightness Start Highest point End Pass type
(mag) Time Alt. Az. Time Alt. Az. Time Alt. Az.
25 Nov -1.0 04:50:04 19° NE 04:50:04 19° NE 04:52:05 10° ENE visible
25 Nov -3.3 06:23:16 10° NW 06:26:33 72° SW 06:29:49 10° SE visible
26 Nov -3.0 05:35:17 29° NW 05:36:45 61° NE 05:40:00 10° ESE visible
27 Nov -1.5 04:47:37 30° ENE 04:47:37 30° ENE 04:49:50 10° E visible
27 Nov -1.9 06:20:33 10° WNW 06:23:18 24° SW 06:26:02 10° S visible
28 Nov -2.9 05:32:45 39° W 05:33:24 46° SW 05:36:33 10° SSE visible
29 Nov -1.2 04:45:03 26° SE 04:45:03 26° SE 04:46:37 10° SE visible
30 Nov -1.2 05:30:08 16° SSW 05:30:08 16° SSW 05:31:39 10° S visible
